CW3847 La Orotava ES current weather conditions

sailwx.info

Wind from 171 at 4 knots gusting 7

Air temperature 12.2° C
Dewpoint 8.1° C

Last reported at 2018-Feb-19 23:10 UTC.
Time now 2018-Feb-20 00:08 UTC

Location: N 28°23' W 016°31'.
View on Google Maps.

See reports from other nearby stations

  
Tides and Currents Weather Stations Pressure Air Temp Water Temp Dewpoint Dewpoint Depression Visibility Wind Speed Wind Dir Waves Ship Positions
date/time (UTC)wind fromknots sea level pressurealtimeterstation pressurevisibilityair tempwater tempwave heightnotes
2018-Feb-19 23:10 171 4 gusting 7 12.2
2018-Feb-19 23:05 172 3 gusting 6 12.2
2018-Feb-19 23:00 172 3 gusting 5 12.2
2018-Feb-19 22:55 172 3 gusting 6 12.8
2018-Feb-19 22:50 173 3 gusting 6 12.8
2018-Feb-19 22:45 173 3 gusting 6 12.8
2018-Feb-19 22:40 165 3 gusting 6 12.8
2018-Feb-19 22:35 157 2 gusting 6 12.8
2018-Feb-19 22:30 153 1 gusting 3 12.8
2018-Feb-19 22:25 152 1 gusting 3 12.8
2018-Feb-19 22:20 152 1 gusting 3 12.8
2018-Feb-19 22:15 152 1 gusting 2 13.3
2018-Feb-19 22:10 152 1 gusting 2 13.3
2018-Feb-19 22:05 152 0 gusting 2 13.3
2018-Feb-19 22:00 152 0 gusting 2 13.3
2018-Feb-19 21:55 153 1 gusting 5 13.3
2018-Feb-19 21:50 158 1 gusting 5 12.8
2018-Feb-19 21:45 163 1 gusting 4 12.8
2018-Feb-19 21:40 170 12.8
2018-Feb-19 21:35 169 12.8
2018-Feb-19 21:30 170 12.8
2018-Feb-19 21:25 170 1 gusting 4 12.8
2018-Feb-19 21:20 174 2 gusting 5 12.8
2018-Feb-19 21:15 179 1 gusting 5 12.8
2018-Feb-19 21:10 176 2 gusting 6 12.8
2018-Feb-19 21:05 175 2 gusting 6 12.8
2018-Feb-19 21:00 176 1 gusting 4 12.8
2018-Feb-19 20:55 176 1 gusting 3 12.8
2018-Feb-19 20:50 176 1 gusting 3 12.8
2018-Feb-19 20:45 170 1 gusting 3 12.8
2018-Feb-19 20:40 166 1 gusting 3 12.8
2018-Feb-19 20:35 156 1 gusting 3 12.8
2018-Feb-19 20:30 124 0 gusting 3 13.3
2018-Feb-19 20:25 049 13.3
2018-Feb-19 20:20 049 13.3
2018-Feb-19 20:15 049 13.3
2018-Feb-19 20:10 049 0 gusting 1 13.3
2018-Feb-19 20:05 048 0 gusting 2 13.3
2018-Feb-19 20:00 048 0 gusting 2 13.3
2018-Feb-19 19:55 049 13.3
2018-Feb-19 19:50 048 0 gusting 2 13.3
2018-Feb-19 19:45 048 1 gusting 2 13.3
2018-Feb-19 19:40 049 0 gusting 2 13.3
2018-Feb-19 19:35 048 0 gusting 2 13.3
2018-Feb-19 19:30 048 0 gusting 2 13.3
2018-Feb-19 19:25 049 13.3
2018-Feb-19 19:20 049 13.3
2018-Feb-19 19:15 049 13.3
2018-Feb-19 19:10 13.3
2018-Feb-19 19:05 13.3
2018-Feb-19 19:00 049 13.3
2018-Feb-19 18:55 049 13.3
2018-Feb-19 18:50 048 0 gusting 3 13.3
2018-Feb-19 18:45 048 1 gusting 4 13.3
2018-Feb-19 18:40 049 2 gusting 4 13.9
2018-Feb-19 18:35 049 2 gusting 4 13.9
2018-Feb-19 18:30 049 2 gusting 5 13.9
2018-Feb-19 18:25 050 2 gusting 5 13.9
2018-Feb-19 18:20 052 2 gusting 5 13.9
2018-Feb-19 18:15 052 2 gusting 5 13.9
2018-Feb-19 18:10 030 2 gusting 5 14.4
2018-Feb-19 18:05 358 1 gusting 5 14.4
2018-Feb-19 18:00 357 1 gusting 6 14.4
2018-Feb-19 17:55 011 2 gusting 6 14.4
2018-Feb-19 17:50 014 2 gusting 5 13.9
2018-Feb-19 17:45 353 3 gusting 7 14.4
2018-Feb-19 17:40 347 3 gusting 7 14.4
2018-Feb-19 17:35 352 3 gusting 5 14.4
2018-Feb-19 17:30 346 3 gusting 6 14.4
2018-Feb-19 17:25 343 2 gusting 6 14.4
2018-Feb-19 17:20 356 2 gusting 6 14.4
2018-Feb-19 17:15 358 2 gusting 5 14.4
2018-Feb-19 17:10 356 3 gusting 5 14.4
2018-Feb-19 17:05 346 3 gusting 6 14.4
2018-Feb-19 17:00 336 3 gusting 6 14.4
2018-Feb-19 16:55 339 3 gusting 6 14.4
2018-Feb-19 16:50 346 4 gusting 8 14.4
2018-Feb-19 16:45 342 5 gusting 8 15.0
2018-Feb-19 16:40 338 4 gusting 7 15.0
2018-Feb-19 16:35 351 4 gusting 7 15.0
2018-Feb-19 16:30 359 3 gusting 6 15.0
2018-Feb-19 16:25 003 3 gusting 6 15.0
2018-Feb-19 16:20 001 3 gusting 6 15.0
2018-Feb-19 16:15 356 4 gusting 6 15.0
2018-Feb-19 16:10 001 4 gusting 6 15.0
2018-Feb-19 16:05 005 3 gusting 6 15.0
2018-Feb-19 16:00 007 3 gusting 6 15.0
2018-Feb-19 15:55 353 4 gusting 7 15.0
2018-Feb-19 15:50 349 4 gusting 7 15.0
2018-Feb-19 15:45 003 4 gusting 7 15.0
2018-Feb-19 15:40 356 4 gusting 7 15.0
2018-Feb-19 15:35 352 4 gusting 8 15.0
2018-Feb-19 15:30 359 3 gusting 8 15.0
2018-Feb-19 15:25 350 2 gusting 5 15.0
2018-Feb-19 15:20 340 2 gusting 5 15.0
2018-Feb-19 15:15 337 3 gusting 6 15.0
2018-Feb-19 15:10 343 3 gusting 6 15.0
2018-Feb-19 15:05 348 4 gusting 7 15.0
2018-Feb-19 15:00 003 3 gusting 7 15.0
2018-Feb-19 14:55 023 3 gusting 6 15.0
2018-Feb-19 14:50 010 4 gusting 8 15.0
2018-Feb-19 14:45 014 4 gusting 9 15.0
2018-Feb-19 14:40 019 4 gusting 9 15.0
2018-Feb-19 14:35 007 4 gusting 8 15.0
2018-Feb-19 14:30 003 5 gusting 10 15.6
2018-Feb-19 14:25 003 4 gusting 10 15.6
2018-Feb-19 14:20 010 3 gusting 6 15.6
2018-Feb-19 14:15 013 2 gusting 6 15.6
2018-Feb-19 14:10 010 2 gusting 6 15.6
2018-Feb-19 14:05 003 3 gusting 6 15.6
2018-Feb-19 14:00 352 4 gusting 7 15.6
2018-Feb-19 13:55 354 3 gusting 7 15.6
2018-Feb-19 13:50 004 2 gusting 5 15.6
2018-Feb-19 13:45 008 2 gusting 5 15.6
2018-Feb-19 13:40 015 2 gusting 5 15.6
2018-Feb-19 13:35 009 3 gusting 8 15.6
2018-Feb-19 13:30 012 4 gusting 9 15.6
2018-Feb-19 13:25 009 5 gusting 9 15.6
2018-Feb-19 13:20 006 5 gusting 9 15.6
2018-Feb-19 13:15 004 6 gusting 10 15.6
2018-Feb-19 13:10 352 5 gusting 10 15.6
2018-Feb-19 13:05 352 3 gusting 8 15.6
2018-Feb-19 13:00 004 3 gusting 6 15.6
2018-Feb-19 12:55 013 1 gusting 6 15.6
2018-Feb-19 12:50 031 0 gusting 2 15.6
2018-Feb-19 12:45 031 0 gusting 2 15.6
2018-Feb-19 12:40 030 0 gusting 3 15.6
2018-Feb-19 12:35 030 1 gusting 4 15.6
2018-Feb-19 12:30 017 1 gusting 5 15.6
2018-Feb-19 12:25 354 1 gusting 5 15.6
2018-Feb-19 12:20 346 1 gusting 4 15.0
2018-Feb-19 12:15 350 2 gusting 5 15.0
2018-Feb-19 12:10 357 2 gusting 5 15.0
2018-Feb-19 12:05 004 2 gusting 5 14.4
2018-Feb-19 12:00 011 1 gusting 5 14.4
2018-Feb-19 11:55 144 0 gusting 2 14.4
2018-Feb-19 11:50 144 0 gusting 3 14.4
2018-Feb-19 11:45 144 0 gusting 3 13.9
2018-Feb-19 11:40 150 1 gusting 6 13.9
2018-Feb-19 11:35 160 2 gusting 6 13.9
2018-Feb-19 11:30 161 3 gusting 6 13.3
2018-Feb-19 11:25 157 2 gusting 6 13.3
2018-Feb-19 11:20 152 2 gusting 5 13.3
2018-Feb-19 11:15 090 2 gusting 5 13.3
2018-Feb-19 11:10 010 1 gusting 2 13.9
2018-Feb-19 11:05 009 0 gusting 2 13.9
2018-Feb-19 11:00 009 0 gusting 3 13.9
2018-Feb-19 10:55 009 1 gusting 3 13.9
2018-Feb-19 10:50 009 1 gusting 4 13.9
2018-Feb-19 10:45 009 1 gusting 4 13.9
2018-Feb-19 10:40 009 2 gusting 6 13.9
2018-Feb-19 10:35 002 2 gusting 6 13.9
2018-Feb-19 10:30 343 2 gusting 4 13.9
2018-Feb-19 10:25 321 2 gusting 4 13.9
2018-Feb-19 10:20 302 1 gusting 3 13.9
2018-Feb-19 10:15 296 1 gusting 3 13.3
2018-Feb-19 10:10 286 0 gusting 3 13.3
2018-Feb-19 10:05 194 13.3
2018-Feb-19 10:00 194 0 gusting 2 12.8
2018-Feb-19 09:55 194 0 gusting 2 12.8
2018-Feb-19 09:50 194 0 gusting 2 12.2
2018-Feb-19 09:45 195 0 gusting 3 12.2
2018-Feb-19 09:40 192 1 gusting 5 12.2
2018-Feb-19 09:35 189 2 gusting 6 12.2
2018-Feb-19 09:30 182 2 gusting 6 12.2
2018-Feb-19 09:25 169 3 gusting 6 12.2
2018-Feb-19 09:20 177 2 gusting 6 12.8
2018-Feb-19 09:15 318 1 gusting 2 13.3
2018-Feb-19 09:10 315 0 gusting 2 13.3
2018-Feb-19 09:05 300 0 gusting 2 13.3
2018-Feb-19 09:00 296 0 gusting 2 12.8
2018-Feb-19 08:55 295 12.8
2018-Feb-19 08:50 295 12.8
2018-Feb-19 08:45 296 0 gusting 2 12.8
2018-Feb-19 08:40 296 0 gusting 2 12.8
2018-Feb-19 08:35 296 0 gusting 1 12.8
2018-Feb-19 08:30 297 0 gusting 3 12.8
2018-Feb-19 08:25 299 1 gusting 3 12.8
2018-Feb-19 08:20 300 0 gusting 2 12.8
2018-Feb-19 08:15 279 0 gusting 3 12.8
2018-Feb-19 08:10 218 1 gusting 5 12.8
2018-Feb-19 08:05 183 2 gusting 5 12.8
2018-Feb-19 08:00 175 3 gusting 6 12.8
2018-Feb-19 07:55 174 3 gusting 8 12.2
2018-Feb-19 07:50 173 4 gusting 8 12.2
2018-Feb-19 07:45 170 4 gusting 8 12.2
2018-Feb-19 07:40 171 3 gusting 7 12.8
2018-Feb-19 07:35 168 4 gusting 9 12.8
2018-Feb-19 07:30 164 5 gusting 9 12.8
2018-Feb-19 07:25 161 5 gusting 8 12.8
2018-Feb-19 07:20 161 4 gusting 6 12.8
2018-Feb-19 07:15 162 4 gusting 5 12.8
2018-Feb-19 07:10 161 3 gusting 5 12.8
2018-Feb-19 07:05 161 2 gusting 4 12.8
2018-Feb-19 07:00 161 1 gusting 4 12.8
2018-Feb-19 06:55 162 0 gusting 4 12.8
2018-Feb-19 06:50 161 0 gusting 4 12.2
2018-Feb-19 06:45 162 1 gusting 4 12.2
2018-Feb-19 06:40 161 2 gusting 5 12.2
2018-Feb-19 06:35 161 2 gusting 5 12.2
2018-Feb-19 06:30 161 2 gusting 4 12.2
2018-Feb-19 06:25 161 2 gusting 6 12.2
2018-Feb-19 06:20 169 3 gusting 6 11.7
2018-Feb-19 06:15 174 4 gusting 7 11.7
2018-Feb-19 06:10 172 4 gusting 7 11.7
2018-Feb-19 06:05 173 4 gusting 7 11.7
2018-Feb-19 06:00 173 4 gusting 7 11.7
2018-Feb-19 05:55 168 4 gusting 7 11.7
2018-Feb-19 05:50 162 4 gusting 6 12.2
2018-Feb-19 05:45 156 4 gusting 7 11.7
2018-Feb-19 05:40 151 3 gusting 7 12.2
2018-Feb-19 05:35 149 3 gusting 8 12.2
2018-Feb-19 05:30 153 4 gusting 8 12.2
2018-Feb-19 05:25 157 5 gusting 8 11.7
2018-Feb-19 05:20 159 5 gusting 8 12.2
2018-Feb-19 05:15 161 5 gusting 8 12.2
2018-Feb-19 05:10 162 5 gusting 8 12.2
2018-Feb-19 05:05 160 6 gusting 10 12.2
2018-Feb-19 05:00 161 6 gusting 10 12.2
2018-Feb-19 04:55 159 6 gusting 11 12.2
2018-Feb-19 04:50 159 6 gusting 13 12.2
2018-Feb-19 04:45 161 7 gusting 13 12.2
2018-Feb-19 04:40 162 7 gusting 10 12.2
2018-Feb-19 04:35 161 6 gusting 10 12.2
2018-Feb-19 04:30 159 6 gusting 10 12.2
2018-Feb-19 04:25 160 6 gusting 10 12.2
2018-Feb-19 04:20 163 6 gusting 10 12.2
2018-Feb-19 04:15 162 6 gusting 13 11.7
2018-Feb-19 04:10 159 6 gusting 13 11.7
2018-Feb-19 04:05 161 6 gusting 10 11.7
2018-Feb-19 04:00 163 6 gusting 11 11.7
2018-Feb-19 03:55 165 6 gusting 12 11.7
2018-Feb-19 03:50 163 6 gusting 12 11.7
2018-Feb-19 03:45 163 6 gusting 12 11.7
2018-Feb-19 03:40 164 6 gusting 12 11.7
2018-Feb-19 03:35 163 6 gusting 11 11.7
2018-Feb-19 03:30 163 5 gusting 9 11.7
2018-Feb-19 03:25 160 5 gusting 9 11.7
2018-Feb-19 03:20 159 5 gusting 9 11.7
2018-Feb-19 03:15 157 5 gusting 9 11.7
2018-Feb-19 03:10 159 5 gusting 9 11.7
2018-Feb-19 03:05 160 3 gusting 7 12.2
2018-Feb-19 03:00 158 3 gusting 7 12.2
2018-Feb-19 02:55 163 4 gusting 8 12.2
2018-Feb-19 02:50 162 5 gusting 9 12.2
2018-Feb-19 02:45 161 6 gusting 9 11.7
2018-Feb-19 02:40 157 6 gusting 9 11.7
2018-Feb-19 02:35 152 6 gusting 10 12.2
2018-Feb-19 02:30 147 5 gusting 10 12.2
2018-Feb-19 02:25 144 4 gusting 8 12.2
2018-Feb-19 02:20 152 5 gusting 9 12.2
2018-Feb-19 02:15 160 5 gusting 9 11.7
2018-Feb-19 02:10 164 5 gusting 9 11.7
2018-Feb-19 02:05 167 4 gusting 9 11.7
2018-Feb-19 02:00 170 3 gusting 6 11.7
2018-Feb-19 01:55 168 3 gusting 6 11.7
2018-Feb-19 01:50 170 3 gusting 7 11.7
2018-Feb-19 01:45 171 3 gusting 7 11.7
2018-Feb-19 01:40 166 3 gusting 7 11.7
2018-Feb-19 01:35 161 4 gusting 7 11.7
2018-Feb-19 01:30 162 5 gusting 7 11.7
2018-Feb-19 01:25 167 5 gusting 8 11.7
2018-Feb-19 01:20 173 5 gusting 8 11.7
2018-Feb-19 01:15 171 4 gusting 7 11.7
2018-Feb-19 01:10 164 4 gusting 8 11.7
2018-Feb-19 01:05 166 5 gusting 9 11.7
2018-Feb-19 01:00 168 5 gusting 9 11.7
2018-Feb-19 00:55 167 5 gusting 7 11.7
2018-Feb-19 00:50 168 4 gusting 8 11.7
2018-Feb-19 00:45 167 5 gusting 8 11.7
2018-Feb-19 00:40 162 4 gusting 7 11.7
2018-Feb-19 00:35 160 5 gusting 8 11.7
2018-Feb-19 00:30 161 5 gusting 8 11.7
2018-Feb-19 00:25 161 4 gusting 7 11.7
2018-Feb-19 00:20 162 5 gusting 7 11.7
2018-Feb-19 00:15 162 5 gusting 7 11.7
2018-Feb-19 00:10 159 5 gusting 8 11.7
2018-Feb-19 00:05 159 5 gusting 8 11.7
2018-Feb-19 00:00 162 4 gusting 7 11.7
2018-Feb-18 23:55 164 4 gusting 8 11.7
2018-Feb-18 23:50 163 4 gusting 8 11.7
2018-Feb-18 23:45 167 3 gusting 7 11.7
2018-Feb-18 23:40 165 4 gusting 7 11.7
2018-Feb-18 23:35 164 4 gusting 7 11.7
2018-Feb-18 23:30 168 2 gusting 6 11.7
2018-Feb-18 23:25 173 2 gusting 5 11.7
2018-Feb-18 23:20 173 3 gusting 5 11.7
2018-Feb-18 23:15 172 3 gusting 5 11.7
2018-Feb-18 23:10 172 3 gusting 6 11.7
2018-Feb-18 23:05 169 3 gusting 6 12.2
2018-Feb-18 23:00 164 2 gusting 5 12.2
2018-Feb-18 22:55 167 2 gusting 5 12.2
2018-Feb-18 22:50 169 2 gusting 5 12.2
2018-Feb-18 22:45 170 2 gusting 5 12.2
2018-Feb-18 22:40 172 1 gusting 5 12.2
2018-Feb-18 22:35 173 1 gusting 5 12.2
2018-Feb-18 22:30 173 1 gusting 5 12.2
2018-Feb-18 22:25 173 2 gusting 5 12.2
2018-Feb-18 22:20 175 3 gusting 6 12.2
2018-Feb-18 22:15 178 2 gusting 6 12.2
2018-Feb-18 22:10 172 2 gusting 4 12.2
2018-Feb-18 22:05 165 3 gusting 6 12.2
2018-Feb-18 22:00 166 4 gusting 6 12.2
2018-Feb-18 21:55 167 4 gusting 6 12.2
2018-Feb-18 21:50 167 3 gusting 6 12.2
2018-Feb-18 21:45 168 3 gusting 5 12.2
2018-Feb-18 21:40 170 2 gusting 5 12.2
2018-Feb-18 21:35 173 2 gusting 5 12.2
2018-Feb-18 21:30 176 3 gusting 6 12.2
2018-Feb-18 21:25 178 3 gusting 6 12.2
2018-Feb-18 21:20 178 3 gusting 6 12.2
2018-Feb-18 21:15 176 3 gusting 6 12.2
2018-Feb-18 21:10 246 2 gusting 5 12.2
2018-Feb-18 21:05 342 2 gusting 4 12.2
2018-Feb-18 21:00 343 2 gusting 4 12.2
2018-Feb-18 20:55 343 2 gusting 4 12.2
2018-Feb-18 20:50 343 2 gusting 4 12.2
2018-Feb-18 20:45 343 1 gusting 4 12.8
2018-Feb-18 20:40 343 1 gusting 4 12.8
2018-Feb-18 20:35 343 1 gusting 4 12.8
2018-Feb-18 20:30 343 1 gusting 4 12.8
2018-Feb-18 20:25 344 2 gusting 4 12.8
2018-Feb-18 20:20 345 2 gusting 4 12.8
2018-Feb-18 20:15 346 2 gusting 4 12.8
2018-Feb-18 20:10 346 1 gusting 3 12.8
2018-Feb-18 20:05 345 1 gusting 2 12.8
2018-Feb-18 20:00 345 0 gusting 2 12.8
2018-Feb-18 19:55 346 1 gusting 4 12.8
2018-Feb-18 19:50 345 1 gusting 4 13.3
2018-Feb-18 19:45 345 0 gusting 2 13.3
2018-Feb-18 19:40 345 0 gusting 2 13.3
2018-Feb-18 19:35 346 0 gusting 2 13.3
2018-Feb-18 19:30 346 0 gusting 2 13.3
2018-Feb-18 19:25 345 0 gusting 2 13.3
2018-Feb-18 19:20 346 13.9
2018-Feb-18 19:15 346 13.9
2018-Feb-18 19:10 346 13.9
2018-Feb-18 19:05 345 13.9
2018-Feb-18 19:00 346 0 gusting 3 13.9
2018-Feb-18 18:55 345 1 gusting 3 13.9
2018-Feb-18 18:50 346 1 gusting 3 13.9
2018-Feb-18 18:45 346 1 gusting 3 13.9
2018-Feb-18 18:40 346 2 gusting 4 14.4
2018-Feb-18 18:35 346 2 gusting 4 14.4
2018-Feb-18 18:30 346 2 gusting 3 14.4
2018-Feb-18 18:25 345 1 gusting 3 14.4
2018-Feb-18 18:20 346 0 gusting 2 14.4
2018-Feb-18 18:15 345 1 gusting 3 14.4
2018-Feb-18 18:10 346 1 gusting 3 14.4
2018-Feb-18 18:05 348 2 gusting 5 15.0
2018-Feb-18 18:00 006 3 gusting 6 15.0
2018-Feb-18 17:55 020 3 gusting 6 15.0
2018-Feb-18 17:50 006 3 gusting 6 15.0
2018-Feb-18 17:45 350 3 gusting 6 15.0
2018-Feb-18 17:40 341 3 gusting 7 15.0
2018-Feb-18 17:35 351 3 gusting 7 15.0
2018-Feb-18 17:30 354 2 gusting 5 15.6
2018-Feb-18 17:25 337 2 gusting 5 15.6
2018-Feb-18 17:20 325 2 gusting 7 15.6
2018-Feb-18 17:15 316 3 gusting 7 15.6
2018-Feb-18 17:10 321 3 gusting 6 15.6
2018-Feb-18 17:05 339 3 gusting 6 15.0
2018-Feb-18 17:00 349 3 gusting 7 15.0
2018-Feb-18 16:55 356 3 gusting 7 15.6
2018-Feb-18 16:50 001 3 gusting 7 15.0
2018-Feb-18 16:45 357 3 gusting 7 15.0
2018-Feb-18 16:40 005 3 gusting 7 15.0
2018-Feb-18 16:35 006 3 gusting 7 15.0
2018-Feb-18 16:30 004 3 gusting 7 15.0
2018-Feb-18 16:25 359 4 gusting 7 15.6
2018-Feb-18 16:20 343 5 gusting 10 15.6
2018-Feb-18 16:15 347 5 gusting 10 15.6
2018-Feb-18 16:10 003 4 gusting 9 15.6
2018-Feb-18 16:05 007 4 gusting 9 15.6
2018-Feb-18 16:00 017 3 gusting 7 16.1
2018-Feb-18 15:55 081 1 gusting 5 16.1
2018-Feb-18 15:50 043 1 gusting 4 15.6
2018-Feb-18 15:45 349 2 gusting 6 15.6
2018-Feb-18 15:40 353 2 gusting 6 15.6
2018-Feb-18 15:35 006 1 gusting 4 15.6
2018-Feb-18 15:30 006 0 gusting 4 15.6
2018-Feb-18 15:25 006 1 gusting 3 15.0
2018-Feb-18 15:20 006 1 gusting 3 15.0
2018-Feb-18 15:15 006 1 gusting 5 15.0
2018-Feb-18 15:10 006 2 gusting 5 15.0
2018-Feb-18 15:05 355 3 gusting 6 15.0
2018-Feb-18 15:00 355 2 gusting 6 15.0
2018-Feb-18 14:55 351 2 gusting 5 15.0
2018-Feb-18 14:50 349 3 gusting 6 15.0
2018-Feb-18 14:45 010 3 gusting 6 15.0
2018-Feb-18 14:40 005 3 gusting 6 15.0
2018-Feb-18 14:35 348 3 gusting 6 15.0
2018-Feb-18 14:30 354 3 gusting 7 15.0
2018-Feb-18 14:25 347 3 gusting 7 15.0
2018-Feb-18 14:20 344 3 gusting 6 15.0
2018-Feb-18 14:15 001 3 gusting 6 15.0
2018-Feb-18 14:10 006 3 gusting 8 15.0
2018-Feb-18 14:05 003 3 gusting 8 15.0
2018-Feb-18 13:57 354 4 gusting 8 15.0
2018-Feb-18 13:51 006 4 gusting 7 15.0
2018-Feb-18 13:45 014 3 gusting 7 15.0
2018-Feb-18 13:40 006 4 gusting 8 14.4
2018-Feb-18 13:35 012 4 gusting 8 15.0
2018-Feb-18 13:30 031 3 gusting 6 14.4
2018-Feb-18 13:25 024 3 gusting 6 14.4
2018-Feb-18 13:20 017 3 gusting 6 14.4
2018-Feb-18 13:15 018 4 gusting 8 14.4
2018-Feb-18 13:10 021 5 gusting 8 14.4
2018-Feb-18 13:05 024 5 gusting 9 14.4
2018-Feb-18 13:00 017 5 gusting 9 14.4
2018-Feb-18 12:55 017 5 gusting 9 15.0
2018-Feb-18 12:50 008 4 gusting 9 15.0
2018-Feb-18 12:45 354 5 gusting 9 15.0
2018-Feb-18 12:40 005 5 gusting 9 15.0
2018-Feb-18 12:35 021 3 gusting 7 15.0
2018-Feb-18 12:30 020 3 gusting 6 15.0
2018-Feb-18 12:25 009 4 gusting 7 14.4
2018-Feb-18 12:20 003 4 gusting 9 15.0
2018-Feb-18 12:15 001 4 gusting 9 15.0
2018-Feb-18 12:10 355 4 gusting 7 15.0
2018-Feb-18 12:05 359 3 gusting 7 15.6
2018-Feb-18 12:00 350 3 gusting 7 15.6
2018-Feb-18 11:55 347 3 gusting 7 15.6
2018-Feb-18 11:50 008 4 gusting 7 15.0
2018-Feb-18 11:45 013 4 gusting 7 15.0
2018-Feb-18 11:40 355 4 gusting 8 15.0
2018-Feb-18 11:35 352 5 gusting 8 15.0
2018-Feb-18 11:30 353 5 gusting 9 15.0
2018-Feb-18 11:25 350 5 gusting 9 15.0
2018-Feb-18 11:20 007 4 gusting 8 15.6
2018-Feb-18 11:15 044 2 gusting 6 15.6
2018-Feb-18 11:10 032 3 gusting 8 15.6
2018-Feb-18 11:05 004 3 gusting 8 15.6
2018-Feb-18 11:00 002 2 gusting 5 15.6
2018-Feb-18 10:55 012 2 gusting 6 15.6
2018-Feb-18 10:50 016 2 gusting 6 15.6
2018-Feb-18 10:45 006 2 gusting 6 15.0
2018-Feb-18 10:40 354 2 gusting 5 15.0
2018-Feb-18 10:35 355 2 gusting 6 15.0
2018-Feb-18 10:30 355 2 gusting 6 15.6
2018-Feb-18 10:25 351 1 gusting 3 15.6
2018-Feb-18 10:20 348 1 gusting 4 15.0
2018-Feb-18 10:15 326 1 gusting 4 15.0
2018-Feb-18 10:10 304 1 gusting 4 15.0
2018-Feb-18 10:05 295 1 gusting 3 15.0
2018-Feb-18 10:00 271 1 gusting 3 15.0
2018-Feb-18 09:55 219 0 gusting 3 15.0
2018-Feb-18 09:50 178 15.0
2018-Feb-18 09:45 178 14.4
2018-Feb-18 09:40 178 14.4
2018-Feb-18 09:35 178 14.4
2018-Feb-18 09:30 178 14.4
2018-Feb-18 09:25 177 0 gusting 2 13.9
2018-Feb-18 09:20 177 1 gusting 3 13.9
2018-Feb-18 09:15 177 1 gusting 3 13.3
2018-Feb-18 09:10 177 2 gusting 5 12.8
2018-Feb-18 09:05 172 2 gusting 6 12.2
2018-Feb-18 09:00 172 3 gusting 6 12.2
2018-Feb-18 08:55 174 3 gusting 7 11.7
2018-Feb-18 08:50 169 3 gusting 7 11.7
2018-Feb-18 08:45 164 3 gusting 6 11.7
2018-Feb-18 08:40 163 3 gusting 5 11.7
2018-Feb-18 08:35 164 4 gusting 6 11.7
2018-Feb-18 08:30 161 4 gusting 6 11.7
2018-Feb-18 08:25 158 4 gusting 6 11.7
2018-Feb-18 08:20 164 3 gusting 6 11.7
2018-Feb-18 08:15 166 4 gusting 7 11.7
2018-Feb-18 08:10 164 4 gusting 7 11.7
2018-Feb-18 08:05 159 4 gusting 9 11.7
2018-Feb-18 08:00 157 4 gusting 9 11.7
2018-Feb-18 07:55 160 5 gusting 7 11.7
2018-Feb-18 07:50 162 6 gusting 8 11.7
2018-Feb-18 07:45 162 6 gusting 8 11.7
2018-Feb-18 07:40 161 5 gusting 9 11.7
2018-Feb-18 07:35 155 6 gusting 9 11.7
2018-Feb-18 07:30 155 5 gusting 8 11.7
2018-Feb-18 07:25 160 5 gusting 7 11.7
2018-Feb-18 07:20 161 5 gusting 8 11.7
2018-Feb-18 07:15 162 4 gusting 8 12.2
2018-Feb-18 07:10 168 3 gusting 6 12.2
2018-Feb-18 07:05 179 2 gusting 6 12.2
2018-Feb-18 07:00 184 2 gusting 5 12.2
2018-Feb-18 06:55 188 2 gusting 5 12.2
2018-Feb-18 06:50 193 1 gusting 5 12.2
2018-Feb-18 06:45 187 2 gusting 5 12.2
2018-Feb-18 06:40 179 1 gusting 5 12.8
2018-Feb-18 06:35 171 0 gusting 3 12.8
2018-Feb-18 06:30 170 0 gusting 3 12.8
2018-Feb-18 06:25 170 0 gusting 3 12.8
2018-Feb-18 06:20 171 0 gusting 3 12.8
2018-Feb-18 06:15 171 0 gusting 3 12.8
2018-Feb-18 06:10 12.8
2018-Feb-18 06:05 171 0 gusting 3 12.8
2018-Feb-18 06:00 171 1 gusting 4 12.8
2018-Feb-18 05:55 171 1 gusting 4 12.8
2018-Feb-18 05:50 179 1 gusting 4 12.8
2018-Feb-18 05:45 175 2 gusting 4 12.8
2018-Feb-18 05:40 161 1 gusting 4 12.8
2018-Feb-18 05:35 261 1 gusting 3 12.8
2018-Feb-18 05:30 320 0 gusting 2 12.8
2018-Feb-18 05:25 321 0 gusting 2 12.8
2018-Feb-18 05:20 320 0 gusting 2 12.8
2018-Feb-18 05:15 320 0 gusting 2 12.8
2018-Feb-18 05:10 320 0 gusting 2 12.8
2018-Feb-18 05:05 321 0 gusting 2 12.8
2018-Feb-18 05:00 321 0 gusting 2 13.3
2018-Feb-18 04:55 320 13.3
2018-Feb-18 04:50 321 13.3
2018-Feb-18 04:45 321 13.3
2018-Feb-18 04:40 321 0 gusting 1 13.3
2018-Feb-18 04:35 320 0 gusting 2 13.3
2018-Feb-18 04:30 320 0 gusting 2 13.3
2018-Feb-18 04:25 320 0 gusting 2 13.3
2018-Feb-18 04:20 320 0 gusting 4 13.3
2018-Feb-18 04:15 282 0 gusting 4 13.3
2018-Feb-18 04:10 161 0 gusting 3 13.3
2018-Feb-18 04:05 161 13.3
2018-Feb-18 04:00 161 13.3
2018-Feb-18 03:55 161 13.3
2018-Feb-18 03:50 160 0 gusting 1 13.3
2018-Feb-18 03:45 160 0 gusting 3 13.3
2018-Feb-18 03:40 160 1 gusting 4 13.3
2018-Feb-18 03:35 160 2 gusting 6 13.3
2018-Feb-18 03:30 159 2 gusting 6 13.3
2018-Feb-18 03:25 158 2 gusting 4 13.3
2018-Feb-18 03:20 158 1 gusting 4 13.3
2018-Feb-18 03:15 158 0 gusting 3 13.3
2018-Feb-18 03:10 158 13.3
2018-Feb-18 03:05 158 13.3
2018-Feb-18 03:00 158 13.3
2018-Feb-18 02:55 13.3
2018-Feb-18 02:50 158 13.3
2018-Feb-18 02:45 158 0 gusting 3 13.3
2018-Feb-18 02:40 158 0 gusting 3 13.3
2018-Feb-18 02:35 158 1 gusting 5 13.3
2018-Feb-18 02:30 158 1 gusting 5 13.3
2018-Feb-18 02:25 158 0 gusting 4 13.3
2018-Feb-18 02:20 158 13.3
2018-Feb-18 02:15 158 13.3
2018-Feb-18 02:10 158 0 gusting 1 13.3
2018-Feb-18 02:05 158 0 gusting 3 13.3
2018-Feb-18 02:00 158 1 gusting 4 13.3
2018-Feb-18 01:55 158 1 gusting 4 13.3
2018-Feb-18 01:50 158 1 gusting 4 13.3
2018-Feb-18 01:45 158 0 gusting 3 13.3
2018-Feb-18 01:40 158 0 gusting 2 13.3
2018-Feb-18 01:35 158 0 gusting 2 13.3
2018-Feb-18 01:30 158 0 gusting 2 13.9
2018-Feb-18 01:25 158 0 gusting 1 13.9
2018-Feb-18 01:20 158 0 gusting 3 13.9
2018-Feb-18 01:15 158 1 gusting 5 13.9
2018-Feb-18 01:10 160 2 gusting 6 13.9
2018-Feb-18 01:05 161 2 gusting 6 13.9
2018-Feb-18 01:00 162 3 gusting 5 13.9
2018-Feb-18 00:55 159 4 gusting 8 13.9
2018-Feb-18 00:50 158 3 gusting 8 13.3
2018-Feb-18 00:45 159 2 gusting 5 13.3
2018-Feb-18 00:40 158 2 gusting 5 13.3
2018-Feb-18 00:35 137 2 gusting 5 13.3
2018-Feb-18 00:30 032 2 gusting 5 13.3
2018-Feb-18 00:25 355 2 gusting 4 13.3
2018-Feb-18 00:20 353 2 gusting 5 13.3
2018-Feb-18 00:15 350 2 gusting 5 13.3
2018-Feb-18 00:10 347 2 gusting 4 13.3
2018-Feb-18 00:05 345 1 gusting 4 13.3
2018-Feb-18 00:00 345 1 gusting 2 13.3